Simultaneous Nadir Overpasses (SNOs) Predictions

Prediction of SNOs between TERRA and METOP-C Satellite Orbit:

Table of predicted SNOs for the next 14.0 days since TLE Epoch: 5/11/2019
Index Date (TERRA) Time (TERRA) Lat,Lon (TERRA) SZA (TERRA ) Date (METOP-C) Time (METOP-C) Lat,Lon (METOP-C) SZA (METOP-C ) Distance(km) Time Diff (sec)
1 05/12/2019 00:36:27 -81.29, 37.97 113.74 05/12/2019 00:35:40 -81.30, 37.97 113.76 0.25 47
2 05/12/2019 01:25:53 81.30,-154.23 66.28 05/12/2019 01:26:19 81.30,-154.12 66.31 2.00 26
3 05/14/2019 20:10:42 -81.30, 104.44 114.42 05/14/2019 20:10:04 -81.29, 104.27 114.46 2.87 38
4 05/14/2019 21:00:08 81.30, -87.79 65.59 05/14/2019 21:00:43 81.30, -87.88 65.60 1.60 35
5 05/17/2019 15:44:56 -81.30, 170.88 115.07 05/17/2019 15:44:26 -81.30, 170.96 115.08 1.30 30
6 05/17/2019 16:34:22 81.30, -21.37 64.94 05/17/2019 16:35:05 81.30, -21.25 64.98 2.01 43
7 05/20/2019 11:19:11 -81.29,-122.71 115.69 05/20/2019 11:18:50 -81.30,-122.75 115.70 0.72 21
8 05/20/2019 12:08:37 81.30, 45.01 64.32 05/20/2019 12:09:29 81.30, 44.99 64.35 0.63 52
9 05/23/2019 06:53:26 -81.29, -56.33 116.26 05/23/2019 06:53:14 -81.30, -56.45 116.28 2.18 12




NCC Satellite Simultaneous Nadir Overpasses (SNOs) Prediction Service
